User: anonymous   Login
Location: Unspecified
(0.0000°N, 0.0000°E)
Time: 16:57:55
(UTC+00:00)
Language:

USA 135 - Orbit

View from above orbital plane
View from above orbital plane
View from above satellite
View from above satellite

Ground track
Ground track

The orbit data is extracted from the following two-line orbital elements,

1 25019U 97065A   18143.75501175 0.00000000  00000-0  00000-0 0    05
2 25019   9.3269  41.2483 0006998 246.0425 113.8924  1.00270000    03
Epoch (UTC): 23 May 2018 18:07:13
Eccentricity: 0.0006998
inclination: 9.3269°
perigee height: 35757 km
apogee height: 35816 km
right ascension of ascending node: 41.2483°
argument of perigee: 246.0425°
revolutions per day: 1.00270000
mean anomaly at epoch: 113.8924°
orbit number at epoch: 0

The dashed part of the orbit path shows where the satellite is in the earth's shadow,  

DLR